TimeCST,TemperatureF,Dew PointF,Humidity,Sea Level PressureIn,VisibilityMPH,Wind Direction,Wind SpeedMPH,Gust SpeedMPH,PrecipitationIn,Events,Conditions,WindDirDegrees,DateUTC
12:15 AM,-4.9,-12.6,69,29.67,4.0,NW,11.5,19.6,N/A,,Haze,320,2014-01-27 06:15:00
12:35 AM,-5.4,-11.9,74,29.68,2.5,NNW,6.9,-,N/A,Snow,Light Snow,340,2014-01-27 06:35:00
12:55 AM,-5.8,-12.1,74,29.69,3.0,NNW,4.6,-,N/A,Snow,Light Snow,330,2014-01-27 06:55:00
1:15 AM,-5.8,-11.9,75,29.70,3.0,NW,11.5,16.1,N/A,Snow,Light Snow,320,2014-01-27 07:15:00
1:35 AM,-5.8,-11.7,75,29.70,2.0,NW,6.9,-,N/A,Snow,Light Snow,320,2014-01-27 07:35:00
1:55 AM,-6.0,-13.2,71,29.71,3.0,NNW,16.1,25.3,N/A,Snow,Light Snow,330,2014-01-27 07:55:00
2:15 AM,-5.8,-12.1,74,29.72,1.2,NNW,18.4,23.0,N/A,Snow,Light Snow,330,2014-01-27 08:15:00
2:35 AM,-6.0,-11.6,77,29.74,0.8,NW,11.5,21.9,N/A,Snow,Snow,320,2014-01-27 08:35:00
2:55 AM,-6.2,-12.1,75,29.75,1.0,NW,11.5,27.6,N/A,Snow,Light Snow,320,2014-01-27 08:55:00
3:15 AM,-6.2,-11.7,77,29.76,0.8,NW,11.5,18.4,N/A,Snow,Snow,320,2014-01-27 09:15:00
3:35 AM,-6.7,-12.6,75,29.77,1.2,NW,9.2,18.4,N/A,Snow,Light Snow,310,2014-01-27 09:35:00
3:55 AM,-6.9,-13.0,75,29.78,1.5,NW,11.5,16.1,N/A,Snow,Light Snow,310,2014-01-27 09:55:00
4:15 AM,-7.4,-14.1,73,29.79,1.5,WNW,16.1,23.0,N/A,Snow,Light Snow,300,2014-01-27 10:15:00
4:35 AM,-7.8,-14.3,73,29.80,1.8,NW,13.8,26.5,N/A,Snow,Light Snow,320,2014-01-27 10:35:00
4:55 AM,-7.8,-14.3,73,29.81,2.0,NW,6.9,17.3,N/A,Snow,Light Snow,310,2014-01-27 10:55:00
5:15 AM,-8.5,-15.2,73,29.82,2.0,WNW,17.3,25.3,N/A,Snow,Light Snow,300,2014-01-27 11:15:00
5:35 AM,-9.0,-16.4,70,29.83,3.0,NW,12.7,23.0,N/A,,Haze,310,2014-01-27 11:35:00
5:55 AM,-9.6,-17.0,70,29.84,4.0,WNW,10.4,17.3,N/A,,Haze,300,2014-01-27 11:55:00
6:15 AM,-9.9,-18.4,66,29.85,5.0,WNW,11.5,21.9,N/A,,Haze,300,2014-01-27 12:15:00
6:35 AM,-10.3,-17.7,70,29.86,4.0,WNW,8.1,21.9,N/A,Snow,Light Snow,300,2014-01-27 12:35:00
6:55 AM,-10.5,-17.7,71,29.88,2.5,WNW,10.4,20.7,N/A,Snow,Light Snow,290,2014-01-27 12:55:00
7:15 AM,-11.2,-18.6,70,29.88,2.0,NW,13.8,19.6,N/A,Snow,Light Snow,310,2014-01-27 13:15:00
7:35 AM,-11.6,-19.3,69,29.88,7.0,NW,11.5,17.3,N/A,,Overcast,310,2014-01-27 13:35:00
7:55 AM,-12.5,-19.7,70,29.90,1.5,WNW,11.5,24.2,N/A,,Haze,290,2014-01-27 13:55:00
8:15 AM,-13.2,-21.1,68,29.91,4.0,WNW,11.5,19.6,N/A,,Haze,290,2014-01-27 14:15:00
8:35 AM,-13.7,-21.5,68,29.94,5.0,West,9.2,-,N/A,,Haze,280,2014-01-27 14:35:00
8:55 AM,-13.5,-22.5,64,29.95,10.0,WNW,12.7,20.7,N/A,,Scattered Clouds,300,2014-01-27 14:55:00
9:15 AM,-13.9,-23.8,61,29.96,7.0,NW,11.5,21.9,N/A,,Clear,310,2014-01-27 15:15:00
9:35 AM,-13.4,-23.4,61,29.97,10.0,WNW,11.5,20.7,N/A,,Scattered Clouds,300,2014-01-27 15:35:00
9:55 AM,-13.2,-23.8,59,29.98,10.0,West,10.4,18.4,N/A,,Scattered Clouds,280,2014-01-27 15:55:00
10:15 AM,-12.6,-23.4,59,29.98,10.0,West,11.5,17.3,N/A,,Clear,270,2014-01-27 16:15:00
10:35 AM,-12.5,-23.3,59,29.99,10.0,West,12.7,17.3,N/A,,Clear,280,2014-01-27 16:35:00
10:55 AM,-12.1,-23.3,58,30.00,10.0,WNW,13.8,18.4,N/A,,Clear,290,2014-01-27 16:55:00
11:15 AM,-11.6,-23.1,57,30.00,10.0,WNW,10.4,17.3,N/A,,Scattered Clouds,300,2014-01-27 17:15:00
11:35 AM,-10.7,-22.0,57,30.00,10.0,WNW,12.7,21.9,N/A,,Clear,300,2014-01-27 17:35:00
11:55 AM,-10.5,-22.2,56,30.00,10.0,WNW,11.5,18.4,N/A,,Clear,290,2014-01-27 17:55:00
12:15 PM,-10.3,-21.8,57,30.00,10.0,West,11.5,17.3,N/A,,Scattered Clouds,270,2014-01-27 18:15:00
12:35 PM,-9.4,-21.1,57,30.01,10.0,West,9.2,17.3,N/A,,Clear,280,2014-01-27 18:35:00
12:55 PM,-9.4,-20.4,59,30.01,5.0,West,12.7,17.3,N/A,,Haze,270,2014-01-27 18:55:00
1:15 PM,-8.7,-19.8,58,30.01,10.0,WNW,11.5,17.3,N/A,,Mostly Cloudy,300,2014-01-27 19:15:00
1:35 PM,-8.7,-19.8,58,30.01,5.0,WNW,8.1,18.4,N/A,,Haze,300,2014-01-27 19:35:00
1:55 PM,-8.3,-18.9,60,30.02,7.0,West,9.2,17.3,N/A,,Mostly Cloudy,280,2014-01-27 19:55:00
2:15 PM,-7.8,-18.6,59,30.02,10.0,West,8.1,17.3,N/A,,Scattered Clouds,280,2014-01-27 20:15:00
2:35 PM,-7.4,-18.4,59,30.03,10.0,West,12.7,18.4,N/A,,Clear,270,2014-01-27 20:35:00
2:55 PM,-7.1,-17.7,60,30.03,10.0,WNW,6.9,-,N/A,,Clear,290,2014-01-27 20:55:00
3:15 PM,-7.2,-17.3,62,30.03,7.0,West,9.2,17.3,N/A,,Scattered Clouds,280,2014-01-27 21:15:00
3:35 PM,-7.2,-17.3,62,30.04,10.0,West,11.5,18.4,N/A,,Mostly Cloudy,280,2014-01-27 21:35:00
3:55 PM,-7.6,-16.8,64,30.05,10.0,West,8.1,-,N/A,,Scattered Clouds,280,2014-01-27 21:55:00
4:15 PM,-7.8,-16.8,65,30.05,10.0,WNW,9.2,16.1,N/A,,Clear,290,2014-01-27 22:15:00
4:35 PM,-8.5,-17.0,67,30.05,10.0,West,5.8,16.1,N/A,,Clear,280,2014-01-27 22:35:00
4:55 PM,-8.9,-17.1,67,30.05,10.0,West,3.5,-,N/A,,Clear,270,2014-01-27 22:55:00
5:15 PM,-9.6,-17.1,69,30.06,10.0,West,8.1,-,N/A,,Clear,280,2014-01-27 23:15:00
5:35 PM,-9.8,-17.5,69,30.07,10.0,West,4.6,-,N/A,,Clear,260,2014-01-27 23:35:00
5:55 PM,-10.1,-17.5,70,30.06,10.0,West,5.8,-,N/A,,Clear,280,2014-01-27 23:55:00
6:15 PM,-10.3,-17.5,71,30.07,10.0,West,5.8,-,N/A,,Clear,280,2014-01-28 00:15:00
6:35 PM,-10.7,-17.5,72,30.07,10.0,West,5.8,-,N/A,,Clear,270,2014-01-28 00:35:00
6:55 PM,-10.8,-17.7,72,30.07,10.0,West,3.5,-,N/A,,Clear,270,2014-01-28 00:55:00
7:15 PM,-11.4,-18.0,72,30.07,10.0,West,3.5,-,N/A,,Clear,260,2014-01-28 01:15:00
7:35 PM,-11.2,-17.7,73,30.07,10.0,West,9.2,-,N/A,,Clear,270,2014-01-28 01:35:00
7:55 PM,-10.8,-18.4,69,30.08,10.0,West,9.2,17.3,N/A,,Clear,270,2014-01-28 01:55:00
8:15 PM,-11.2,-18.8,69,30.08,10.0,West,8.1,-,N/A,,Clear,270,2014-01-28 02:15:00
8:35 PM,-11.4,-18.9,69,30.08,10.0,West,9.2,-,N/A,,Clear,270,2014-01-28 02:35:00
8:55 PM,-11.4,-19.3,68,30.07,10.0,West,8.1,-,N/A,,Clear,270,2014-01-28 02:55:00
9:15 PM,-11.6,-19.3,69,30.07,10.0,West,8.1,16.1,N/A,,Clear,270,2014-01-28 03:15:00
9:35 PM,-12.1,-19.3,70,30.08,10.0,West,8.1,-,N/A,,Clear,270,2014-01-28 03:35:00
9:55 PM,-12.6,-19.7,71,30.07,10.0,West,4.6,-,N/A,,Clear,260,2014-01-28 03:55:00
10:15 PM,-13.5,-20.2,72,30.07,10.0,West,9.2,-,N/A,,Clear,260,2014-01-28 04:15:00
10:35 PM,-14.3,-20.7,73,30.07,10.0,West,6.9,-,N/A,,Clear,270,2014-01-28 04:35:00
10:55 PM,-14.4,-21.3,71,30.07,10.0,West,6.9,-,N/A,,Clear,260,2014-01-28 04:55:00
11:15 PM,-14.8,-21.5,72,30.07,10.0,West,9.2,-,N/A,,Clear,270,2014-01-28 05:15:00
11:35 PM,-14.8,-21.5,72,30.07,10.0,West,5.8,-,N/A,,Clear,260,2014-01-28 05:35:00
11:55 PM,-15.2,-22.0,71,30.07,10.0,West,6.9,-,N/A,,Clear,260,2014-01-28 05:55:00